• In Belarus
  • List of Countries
  • For 7 days
  • Water Temperature
  • Satellite Maps
  • Weather Map
  • Weather Widgets
  • user-avatar
    Login

    Hourly Weather Oran

    Today, 22 November, Wednesday

    Time Temperature Precipitation Wind Pressure Humidity
    00:00 +16°C° 0 mm 1 mps 754 mmHg 28%
    01:00 +16°C° 0 mm 1 mps 753 mmHg 28%
    02:00 +16°C° 0 mm 1 mps 753 mmHg 27%
    03:00 +16°C° 0 mm 1 mps 753 mmHg 27%
    04:00 +15°C° 0 mm 1 mps 752 mmHg 27%
    05:00 +15°C° 0 mm 1 mps 752 mmHg 27%
    06:00 +15°C° 0 mm 2 mps 752 mmHg 27%
    07:00 +17°C° 0 mm 2 mps 752 mmHg 25%
    08:00 +19°C° 0 mm 1 mps 752 mmHg 23%
    09:00 +20°C° 0 mm 1 mps 752 mmHg 21%
    10:00 +20°C° 0 mm 2 mps 752 mmHg 20%
    11:00 +23°C° 0 mm 2 mps 752 mmHg 19%
    12:00 +24°C° 0 mm 2 mps 752 mmHg 17%
    13:00 +24°C° 0 mm 2 mps 751 mmHg 18%
    14:00 +24°C° 0 mm 2 mps 751 mmHg 19%
    15:00 +24°C° 0 mm 2 mps 751 mmHg 20%
    16:00 +21°C° 0 mm 2 mps 751 mmHg 26%
    17:00 +20°C° 0 mm 1 mps 751 mmHg 31%
    18:00 +19°C° 0 mm 1 mps 751 mmHg 37%
    19:00 +18°C° 0 mm 1 mps 751 mmHg 37%
    20:00 +18°C° 0 mm 1 mps 752 mmHg 38%
    21:00 +17°C° 0 mm 2 mps 752 mmHg 38%
    22:00 +16°C° 0 mm 2 mps 752 mmHg 37%
    23:00 +16°C° 0 mm 2 mps 752 mmHg 36%

    Tomorrow, 23 November, Thursday

    Time Temperature Precipitation Wind Pressure Humidity
    00:00 +16°C° 0 mm 2 mps 752 mmHg 35%
    01:00 +15°C° 0 mm 2 mps 752 mmHg 35%
    02:00 +15°C° 0 mm 2 mps 752 mmHg 36%
    03:00 +14°C° 0 mm 2 mps 752 mmHg 36%
    04:00 +14°C° 0 mm 2 mps 752 mmHg 36%
    05:00 +14°C° 0 mm 2 mps 752 mmHg 35%
    06:00 +13°C° 0 mm 2 mps 753 mmHg 35%
    07:00 +15°C° 0 mm 2 mps 753 mmHg 31%
    08:00 +17°C° 0 mm 2 mps 754 mmHg 26%
    09:00 +20°C° 0 mm 2 mps 755 mmHg 22%
    10:00 +21°C° 0 mm 2 mps 755 mmHg 21%
    11:00 +23°C° 0 mm 2 mps 755 mmHg 20%
    12:00 +23°C° 0 mm 2 mps 755 mmHg 20%
    13:00 +24°C° 0 mm 2 mps 754 mmHg 20%
    14:00 +24°C° 0 mm 2 mps 754 mmHg 20%
    15:00 +24°C° 0 mm 2 mps 754 mmHg 19%
    16:00 +22°C° 0 mm 1 mps 754 mmHg 24%
    17:00 +20°C° 0 mm 1 mps 755 mmHg 29%
    18:00 +16°C° 0 mm 0 mps 755 mmHg 33%
    19:00 +18°C° 0 mm 1 mps 755 mmHg 33%
    20:00 +18°C° 0 mm 1 mps 755 mmHg 33%
    21:00 +16°C° 0 mm 1 mps 755 mmHg 33%
    22:00 +16°C° 0 mm 1 mps 755 mmHg 32%
    23:00 +16°C° 0 mm 2 mps 755 mmHg 31%

    Day after tomorrow, 24 November, Friday

    Time Temperature Precipitation Wind Pressure Humidity
    00:00 +16°C° 0 mm 2 mps 755 mmHg 30%
    01:00 +15°C° 0 mm 2 mps 755 mmHg 30%
    02:00 +15°C° 0 mm 1 mps 755 mmHg 30%
    03:00 +15°C° 0 mm 1 mps 755 mmHg 30%
    04:00 +15°C° 0 mm 2 mps 755 mmHg 29%
    05:00 +15°C° 0 mm 2 mps 755 mmHg 29%
    06:00 +15°C° 0 mm 2 mps 755 mmHg 28%
    07:00 +17°C° 0 mm 2 mps 755 mmHg 25%
    08:00 +18°C° 0 mm 2 mps 755 mmHg 23%
    09:00 +20°C° 0 mm 2 mps 756 mmHg 20%
    10:00 +23°C° 0 mm 1 mps 756 mmHg 18%
    11:00 +24°C° 0 mm 1 mps 755 mmHg 15%
    12:00 +23°C° 0 mm 0 mps 755 mmHg 13%
    13:00 +25°C° 0 mm 1 mps 755 mmHg 13%
    14:00 +26°C° 0 mm 1 mps 755 mmHg 13%
    15:00 +26°C° 0 mm 1 mps 754 mmHg 12%
    16:00 +24°C° 0 mm 1 mps 754 mmHg 15%
    17:00 +21°C° 0 mm 2 mps 754 mmHg 18%
    18:00 +19°C° 0 mm 2 mps 754 mmHg 21%
    19:00 +19°C° 0 mm 2 mps 754 mmHg 21%
    20:00 +19°C° 0 mm 1 mps 755 mmHg 22%
    21:00 +18°C° 0 mm 1 mps 755 mmHg 23%
    22:00 +18°C° 0 mm 1 mps 755 mmHg 23%
    23:00 +18°C° 0 mm 1 mps 755 mmHg 22%

    25 November, Saturday

    Time Temperature Precipitation Wind Pressure Humidity
    00:00 +18°C° 0 mm 1 mps 755 mmHg 22%
    01:00 +16°C° 0 mm 1 mps 755 mmHg 22%
    02:00 +16°C° 0 mm 1 mps 755 mmHg 22%
    03:00 +16°C° 0 mm 1 mps 754 mmHg 23%
    04:00 +16°C° 0 mm 1 mps 754 mmHg 23%
    05:00 +16°C° 0 mm 1 mps 754 mmHg 22%
    06:00 +15°C° 0 mm 1 mps 754 mmHg 22%
    07:00 +18°C° 0 mm 1 mps 755 mmHg 20%
    08:00 +20°C° 0 mm 1 mps 755 mmHg 18%
    09:00 +22°C° 0 mm 1 mps 756 mmHg 17%
    10:00 +24°C° 0 mm 1 mps 755 mmHg 15%
    11:00 +25°C° 0 mm 1 mps 755 mmHg 14%
    12:00 +24°C° 0 mm 0 mps 755 mmHg 13%
    13:00 +26°C° 0 mm 1 mps 754 mmHg 13%
    14:00 +27°C° 0 mm 1 mps 754 mmHg 13%
    15:00 +27°C° 0 mm 2 mps 754 mmHg 13%
    16:00 +25°C° 0 mm 2 mps 754 mmHg 16%
    17:00 +23°C° 0 mm 2 mps 754 mmHg 18%
    18:00 +20°C° 0 mm 2 mps 754 mmHg 21%
    19:00 +20°C° 0 mm 2 mps 755 mmHg 22%
    20:00 +19°C° 0 mm 2 mps 755 mmHg 23%
    21:00 +19°C° 0 mm 2 mps 755 mmHg 23%
    22:00 +18°C° 0 mm 2 mps 755 mmHg 24%
    23:00 +18°C° 0 mm 2 mps 755 mmHg 24%

    26 November, Sunday

    Time Temperature Precipitation Wind Pressure Humidity
    00:00 +18°C° 0 mm 2 mps 755 mmHg 24%
    01:00 +19°C° 0 mm 1 mps 755 mmHg 24%
    02:00 +19°C° 0 mm 1 mps 754 mmHg 24%
    03:00 +18°C° 0 mm 1 mps 754 mmHg 24%
    04:00 +17°C° 0 mm 2 mps 754 mmHg 25%
    05:00 +17°C° 0 mm 2 mps 755 mmHg 25%
    06:00 +17°C° 0 mm 2 mps 755 mmHg 26%
    07:00 +19°C° 0 mm 2 mps 755 mmHg 25%
    08:00 +20°C° 0 mm 2 mps 756 mmHg 24%
    09:00 +23°C° 0 mm 2 mps 756 mmHg 22%
    10:00 +24°C° 0 mm 2 mps 756 mmHg 21%
    11:00 +24°C° 0 mm 3 mps 756 mmHg 21%
    12:00 +25°C° 0 mm 3 mps 756 mmHg 20%
    13:00 +25°C° 0 mm 3 mps 756 mmHg 22%
    14:00 +25°C° 0 mm 4 mps 756 mmHg 24%
    15:00 +25°C° 0 mm 5 mps 756 mmHg 26%
    16:00 +22°C° 0 mm 4 mps 756 mmHg 33%
    17:00 +21°C° 0 mm 4 mps 757 mmHg 41%
    18:00 +19°C° 0 mm 4 mps 757 mmHg 49%
    19:00 +18°C° 0 mm 3 mps 758 mmHg 53%
    20:00 +18°C° 0 mm 3 mps 758 mmHg 56%
    21:00 +17°C° 0 mm 3 mps 758 mmHg 60%
    22:00 +17°C° 0 mm 3 mps 758 mmHg 62%
    23:00 +16°C° 0 mm 3 mps 758 mmHg 65%

    27 November, Monday

    Time Temperature Precipitation Wind Pressure Humidity
    00:00 +15°C° 0 mm 4 mps 758 mmHg 67%
    01:00 +15°C° 0 mm 4 mps 758 mmHg 68%
    02:00 +14°C° 0 mm 3 mps 758 mmHg 69%
    03:00 +14°C° 0 mm 3 mps 758 mmHg 71%
    04:00 +14°C° 0 mm 3 mps 758 mmHg 70%
    05:00 +14°C° 0 mm 3 mps 758 mmHg 69%
    06:00 +13°C° 0 mm 3 mps 758 mmHg 69%
    07:00 +16°C° 0 mm 2 mps 758 mmHg 61%
    08:00 +18°C° 0 mm 2 mps 759 mmHg 53%
    09:00 +19°C° 0 mm 2 mps 759 mmHg 45%
    10:00 +20°C° 0 mm 2 mps 759 mmHg 39%
    11:00 +23°C° 0 mm 2 mps 758 mmHg 34%
    12:00 +24°C° 0 mm 2 mps 758 mmHg 29%
    13:00 +24°C° 0 mm 2 mps 758 mmHg 29%
    14:00 +24°C° 0 mm 3 mps 757 mmHg 29%
    15:00 +24°C° 0 mm 3 mps 757 mmHg 28%
    16:00 +22°C° 0 mm 3 mps 757 mmHg 33%
    17:00 +20°C° 0 mm 3 mps 757 mmHg 38%
    18:00 +19°C° 0 mm 2 mps 757 mmHg 43%
    19:00 +18°C° 0 mm 2 mps 757 mmHg 45%
    20:00 +19°C° 0 mm 1 mps 757 mmHg 46%
    21:00 +16°C° 0 mm 0 mps 757 mmHg 48%
    22:00 +18°C° 0 mm 1 mps 757 mmHg 50%
    23:00 +18°C° 0 mm 1 mps 757 mmHg 52%
    Show more